本田-ムルコス-パイドゥシャーコヴァー彗星

45P/Honda-Mrkos-Pajdusakova (2006)

English version
Home page
Total 6,336 html files since Dec. 4, 1995
Updated on August 26, 2006

---------------------------------------------------------------------

・ プロフィール

・ 写真集

・ 軌道要素

The following orbital elements are taken from MPC 56957:

Epoch 2006 July 4.0 TT = JDT 2453920.5
T 2006 June 29.8039 TT                                  MPC
q   0.530256             (2000.0)            P               Q
n   0.1876368      Peri.  326.1196      +0.5687544      -0.8191580
a   3.021741       Node    89.1100      +0.7701270      +0.4987067
e   0.824520       Incl.    4.2531      +0.2888302      +0.2833229
P   5.25
From 86 observations 2000-2006, mean residual 0".8.

・ 星図

・ 光度変化

        m1 = 16.0 + 5 logΔ + 30.0 log r  [ ,0]  (              〜2006年 6月29日)
        m1 = 12.0 + 5 logΔ + 15.0 log r  [0, ]  (2006年 6月29日〜              )

---------------------------------------------------------------------

軌道要素はMPCのEphemerides and Orbital Elementsに掲載されたものです。
星図は StellaNavigator Ver.2.0 for Windows (アストロアーツ 編著 / アスキー出版局刊) で作成したものです。
光度グラフはComet for Windowsで作成したものです。

---------------------------------------------------------------------

Copyright(C) 1995-2008 Seiichi Yoshida (comet@aerith.net). All rights reserved.